User: anonymous   Login
Location: Irma
(52.9170°N, 111.2330°W)
Time: 23:31:11
(UTC-07:00)
Language:

Meteor 1-24 Rocket - Orbit

View from above orbital plane
View from above orbital plane
View from above satellite
View from above satellite

Ground track
Ground track

The orbit data is extracted from the following two-line orbital elements,

1  8800U 76032B   17324.45479708 +.00000117 +00000-0 +56028-4 0  9999
2  8800 081.2537 065.3184 0096509 102.7883 258.4093 14.10105274140000
Epoch (UTC): 20 November 2017 10:54:54
Eccentricity: 0.0096509
inclination: 81.2537°
perigee height: 789 km
apogee height: 929 km
right ascension of ascending node: 65.3184°
argument of perigee: 102.7883°
revolutions per day: 14.10105274
mean anomaly at epoch: 258.4093°
orbit number at epoch: 14000

The dashed part of the orbit path shows where the satellite is in the earth's shadow,  

DLR